Lindcove
DateTemperatureDew Point
09/04 - 01:30 AM64.8°61.3°
09/04 - 01:15 AM64.8°60.9°
09/04 - 01:00 AM64.6°61.2°
09/04 - 12:45 AM64.8°61.6°
09/04 - 12:30 AM64.3°61.4°
09/04 - 12:15 AM64.8°62.0°
09/04 - 12:00 AM65.3°62.7°
09/03 - 11:45 PM67.1°64.4°
09/03 - 11:30 PM67.9°65.4°
09/03 - 11:15 PM66.4°63.5°
09/03 - 11:00 PM67.0°63.9°
09/03 - 10:45 PM68.2°65.0°
09/03 - 10:30 PM67.6°64.7°
09/03 - 10:15 PM68.6°65.5°
09/03 - 10:00 PM70.3°66.6°
09/03 - 09:45 PM70.1°65.0°
09/03 - 09:30 PM70.5°64.6°
09/03 - 09:15 PM72.0°65.2°
09/03 - 09:00 PM71.2°62.5°
09/03 - 08:45 PM71.8°60.7°
09/03 - 08:30 PM72.6°61.8°
09/03 - 08:15 PM73.3°63.7°
09/03 - 08:00 PM76.4°69.5°
09/03 - 07:45 PM76.8°68.6°
09/03 - 07:30 PM78.2°67.1°
09/03 - 07:15 PM79.5°65.2°
09/03 - 07:00 PM80.5°61.9°
09/03 - 06:45 PM81.6°59.8°
09/03 - 06:30 PM82.5°58.4°
09/03 - 06:15 PM83.0°58.2°
09/03 - 06:00 PM83.3°57.5°
09/03 - 05:45 PM83.6°58.1°
09/03 - 05:30 PM83.5°57.4°
09/03 - 05:15 PM83.7°57.5°
09/03 - 05:00 PM84.0°57.0°
09/03 - 04:45 PM84.1°56.1°
09/03 - 04:30 PM83.9°56.3°
09/03 - 04:15 PM83.8°55.9°
09/03 - 04:00 PM83.7°55.5°
09/03 - 03:45 PM83.6°56.5°
09/03 - 03:30 PM83.2°56.5°
09/03 - 03:15 PM82.6°55.5°
09/03 - 03:00 PM82.4°55.7°
09/03 - 02:45 PM81.8°55.8°
09/03 - 02:30 PM81.8°56.0°
09/03 - 02:15 PM81.1°56.7°
09/03 - 02:00 PM80.4°56.6°
09/03 - 01:45 PM79.9°56.5°
09/03 - 01:30 PM79.5°56.8°
09/03 - 01:15 PM78.7°56.5°
09/03 - 01:00 PM78.2°56.2°
09/03 - 12:45 PM77.7°56.6°
09/03 - 12:30 PM77.1°56.8°
09/03 - 12:15 PM76.0°56.1°
09/03 - 12:00 PM75.3°56.6°
09/03 - 11:45 AM75.1°57.0°
09/03 - 11:30 AM73.9°56.3°
09/03 - 11:15 AM73.3°56.7°
09/03 - 11:00 AM72.5°56.6°
09/03 - 10:45 AM71.8°56.5°
09/03 - 10:30 AM71.1°56.6°
09/03 - 10:15 AM70.4°56.2°
09/03 - 10:00 AM70.1°56.1°
09/03 - 09:45 AM69.4°56.0°
09/03 - 09:30 AM68.5°55.7°
09/03 - 09:15 AM67.7°55.8°
09/03 - 09:00 AM66.2°55.4°
09/03 - 08:45 AM64.9°55.5°
09/03 - 08:30 AM63.9°55.9°
09/03 - 08:15 AM63.3°57.5°
09/03 - 08:00 AM62.7°59.0°
09/03 - 07:45 AM61.6°60.4°
09/03 - 07:30 AM60.9°60.7°
09/03 - 07:15 AM59.0°59.0°
09/03 - 07:00 AM57.5°57.5°
09/03 - 06:45 AM56.5°56.4°
09/03 - 06:30 AM56.3°56.0°
09/03 - 06:15 AM56.7°56.3°
09/03 - 06:00 AM56.9°56.4°
09/03 - 05:45 AM57.3°56.7°
09/03 - 05:30 AM57.9°57.3°
09/03 - 05:15 AM58.3°57.5°
09/03 - 05:00 AM58.5°57.6°
09/03 - 04:45 AM58.1°57.1°
09/03 - 04:30 AM58.2°57.3°
09/03 - 04:15 AM58.5°57.6°
09/03 - 04:00 AM58.3°57.4°
09/03 - 03:45 AM58.2°57.2°
09/03 - 03:30 AM58.7°57.4°
09/03 - 03:15 AM58.6°56.9°
09/03 - 03:00 AM59.4°57.5°
09/03 - 02:45 AM59.4°57.2°
09/03 - 02:30 AM58.9°56.3°
09/03 - 02:15 AM58.7°55.5°
09/03 - 02:00 AM59.0°55.4°
09/03 - 01:45 AM59.5°56.0°
09/03 - 01:30 AM60.6°57.4°
09/03 - 01:15 AM61.5°57.7°
09/03 - 01:00 AM60.7°56.9°
09/03 - 12:45 AM61.0°57.5°
09/03 - 12:30 AM64.1°60.8°
09/03 - 12:15 AM63.0°59.3°
09/03 - 12:00 AM62.3°59.7°
09/02 - 11:45 PM63.3°60.3°
09/02 - 11:30 PM63.2°59.8°
09/02 - 11:15 PM63.1°58.1°
09/02 - 11:00 PM64.1°58.3°
09/02 - 10:45 PM64.1°58.2°
09/02 - 10:30 PM64.7°58.5°
09/02 - 10:15 PM64.9°59.3°
09/02 - 10:00 PM64.1°61.0°
09/02 - 09:45 PM65.8°62.1°
09/02 - 09:30 PM66.9°62.3°
09/02 - 09:15 PM70.2°65.7°
09/02 - 09:00 PM70.6°66.9°
09/02 - 08:45 PM69.6°65.8°
09/02 - 08:30 PM69.6°63.4°
09/02 - 08:15 PM73.0°65.9°
09/02 - 08:00 PM75.2°67.0°
09/02 - 07:45 PM76.1°66.2°
09/02 - 07:30 PM76.2°64.7°
09/02 - 07:15 PM77.5°62.3°
09/02 - 07:00 PM78.6°58.5°
09/02 - 06:45 PM79.6°56.4°
09/02 - 06:30 PM80.6°55.8°
09/02 - 06:15 PM81.0°54.8°
09/02 - 06:00 PM81.5°54.9°
09/02 - 05:45 PM81.6°55.3°
09/02 - 05:30 PM81.8°54.3°
09/02 - 05:15 PM82.1°54.6°
09/02 - 05:00 PM81.8°53.3°
09/02 - 04:45 PM82.3°54.7°
09/02 - 04:30 PM82.1°54.5°
09/02 - 04:15 PM81.7°53.4°
09/02 - 04:00 PM80.9°54.0°
09/02 - 03:45 PM81.2°54.4°
09/02 - 03:30 PM81.3°55.5°
09/02 - 03:15 PM80.7°54.7°
09/02 - 03:00 PM80.2°54.8°
09/02 - 02:45 PM80.2°55.4°
09/02 - 02:30 PM79.1°54.5°
09/02 - 02:15 PM78.6°54.4°
09/02 - 02:00 PM77.8°54.1°
09/02 - 01:45 PM77.8°54.0°
09/02 - 01:30 PM77.4°53.8°
09/02 - 01:15 PM76.5°53.2°
09/02 - 01:00 PM76.4°53.6°
09/02 - 12:45 PM75.3°52.8°
09/02 - 12:30 PM74.8°52.4°
09/02 - 12:15 PM74.1°52.8°
09/02 - 12:00 PM73.3°52.3°
09/02 - 11:45 AM73.0°52.3°
09/02 - 11:30 AM73.0°52.9°
09/02 - 11:15 AM71.6°52.3°
09/02 - 11:00 AM71.3°51.8°
09/02 - 10:45 AM70.4°52.3°
09/02 - 10:30 AM69.4°51.7°
09/02 - 10:15 AM68.7°51.2°
09/02 - 10:00 AM68.3°51.7°
09/02 - 09:45 AM67.4°51.5°
09/02 - 09:30 AM66.5°51.4°
09/02 - 09:15 AM65.0°51.8°
09/02 - 09:00 AM64.4°50.8°
09/02 - 08:45 AM63.6°51.2°
09/02 - 08:30 AM62.9°52.4°
09/02 - 08:15 AM62.0°52.7°
09/02 - 08:00 AM61.3°52.8°
09/02 - 07:45 AM60.8°53.4°
09/02 - 07:30 AM59.9°53.5°
09/02 - 07:15 AM59.1°53.7°
09/02 - 07:00 AM58.1°53.6°
09/02 - 06:45 AM57.3°54.6°
09/02 - 06:30 AM56.4°54.1°
09/02 - 06:15 AM56.3°53.5°
09/02 - 06:00 AM56.3°52.9°
09/02 - 05:45 AM56.6°52.9°
09/02 - 05:30 AM56.6°53.8°
09/02 - 05:15 AM56.4°53.5°
09/02 - 05:00 AM56.3°53.3°
09/02 - 04:45 AM55.6°53.3°
09/02 - 04:30 AM55.6°53.2°
09/02 - 04:15 AM56.1°53.9°
09/02 - 04:00 AM56.4°54.2°
09/02 - 03:45 AM56.5°54.0°
09/02 - 03:30 AM57.9°55.0°
09/02 - 03:15 AM58.7°55.3°
09/02 - 03:00 AM59.8°55.9°
09/02 - 02:45 AM60.1°55.1°
09/02 - 02:30 AM60.0°54.0°
09/02 - 02:15 AM60.8°54.3°
09/02 - 02:00 AM60.8°54.5°